Tracking 27107 objects as of 20-Mar-2023
HD Live streaming from Space Station
objects crossing your sky now

COSMOS 1818 COOLANT

Track COSMOS 1818 COOLANT now!
10-day predictions


NORAD ID: 34175
Int'l Code: 1987-011F
Perigee: 770.4 km
Apogee: 787.4 km
Inclination: 65.0 °
Period: 100.3 minutes
Semi major axis: 7149 km
RCS: 0.0033 m2 (small)
Launch date: February 1, 1987
Source: Commonwealth of Independent States (former USSR) (CIS)
Launch site: TYURATAM MISSILE AND SPACE COMPLEX (TTMTR)

Note: This is SATELLITE DEBRIS
Your satellite tracking list
Your tracking list is empty




NASA's NSSDC Master Catalog

Two Line Element Set (TLE):
1 34175U 87011F   23076.85698099  .00001924  00000-0  69471-3 0  9995
2 34175  65.0068 287.9635 0011896 289.4776  70.5025 14.35998003173300
Source of the keplerian elements: AFSPC